WS6A-13 Weather Reports


time (UTC)temp
C
wind
direction
speed
KPH
gust
KPH
rain 1hr
cm
rain 24hr
cm
rain mn
cm
humidity
%
barometer
mb
20260905004504 24 79 0.0 0.0 0.00 0.00 0.00 86 1011.1
20260905003003 25 79 0.0 0.0 0.00 0.00 0.00 85 1011.0
20260905001504 25 79 0.0 0.0 0.00 0.00 0.00 84 1010.7
20260904234504 25 79 0.0 0.0 0.00 0.00 0.00 82 1010.9
20260904233004 26 79 0.0 0.0 0.00 0.00 0.00 82 1011.0
20260904231504 26 79 0.0 0.0 0.00 0.00 0.00 82 1011.0
20260904230005 26 79 0.0 0.0 0.00 0.00 0.00 81 1011.2
20260904224504 26 79 0.0 0.0 0.00 0.00 0.00 80 1011.5
20260904223004 26 82 0.0 0.0 0.00 0.00 0.00 82 1011.7
20260904221505 25 82 0.0 1.6 0.00 0.00 0.00 83 1011.4
20260904214504 24 5 0.0 0.0 0.00 0.00 0.00 87 1011.9
20260904213004 24 5 0.0 0.0 0.00 0.00 0.00 86 1012.1
20260904211504 24 5 0.0 0.0 0.00 0.00 0.00 86 1011.9
20260904210004 25 5 0.0 0.0 0.00 0.00 0.00 84 1012.2
20260904204504 25 0 0.0 14.5 0.00 0.00 0.00 82 1012.2
20260904201504 30 52 11.3 27.4 0.00 0.00 0.00 66 1013.3
20260904200006 35 110 1.6 11.3 0.00 0.00 0.00 58 1011.7
20260904194504 35 74 1.6 8.0 0.00 0.00 0.00 61 1011.6
20260904193004 35 134 0.0 9.7 0.00 0.00 0.00 61 1011.8
20260904191503 35 124 0.0 9.7 0.00 0.00 0.00 61 1011.5
20260904190004 35 93 1.6 9.7 0.00 0.00 0.00 61 1011.7
20260904184504 35 253 1.6 12.9 0.00 0.00 0.00 61 1012.1
20260904180003 34 41 3.2 11.3 0.00 0.00 0.00 60 1012.7
20260904173004 34 219 1.6 12.9 0.00 0.00 0.00 61 1013.3
20260904170004 33 103 1.6 11.3 0.00 0.00 0.00 63 1013.4
20260904163004 33 58 1.6 9.7 0.00 0.00 0.00 64 1013.5
20260904161504 33 215 0.0 4.8 0.00 0.00 0.00 68 1013.5
20260904160004 32 198 1.6 9.7 0.00 0.00 0.00 68 1013.7
20260904154504 32 111 0.0 9.7 0.00 0.00 0.00 72 1013.7
20260904153004 31 84 0.0 4.8 0.00 0.00 0.00 73 1013.6
20260904151504 31 9 1.6 9.7 0.00 0.00 0.00 72 1013.5
20260904150004 30 50 0.0 8.0 0.00 0.00 0.00 74 1013.5
20260904144504 30 121 0.0 8.0 0.00 0.00 0.00 75 1013.5
20260904143004 28 60 0.0 0.0 0.00 0.00 0.00 79 1013.4
20260904141503 28 59 0.0 0.0 0.00 0.00 0.00 82 1013.4
20260904140004 27 59 0.0 1.6 0.00 0.00 0.00 86 1013.3
20260904134504 26 60 0.0 1.6 0.00 0.00 0.00 90 1013.6
20260904133004 25 49 0.0 0.0 0.00 0.00 0.00 93 1013.5
20260904130004 24 49 0.0 0.0 0.00 0.00 0.00 96 1013.6
20260904124504 24 49 0.0 0.0 0.00 0.00 0.00 96 1013.7
20260904123005 23 49 0.0 0.0 0.00 0.00 0.00 96 1013.6
20260904121504 23 49 0.0 0.0 0.00 0.00 0.00 95 1013.5
20260904120004 22 49 0.0 0.0 0.00 0.00 0.00 95 1013.4
20260904113004 22 49 0.0 0.0 0.00 0.00 0.00 94 1013.1
20260904111504 22 49 0.0 0.0 0.00 0.00 0.00 93 1012.8
20260904110003 22 49 0.0 0.0 0.00 0.00 0.00 93 1012.6
20260904104504 22 49 0.0 0.0 0.00 0.00 0.00 93 1012.2
20260904103004 22 49 0.0 0.0 0.00 0.00 0.00 93 1012.2
20260904101503 22 49 0.0 0.0 0.00 0.00 0.00 93 1012.2
20260904100004 22 49 0.0 0.0 0.00 0.00 0.00 93 1012.4
20260904094503 22 49 0.0 0.0 0.00 0.00 0.00 93 1012.2
20260904093004 22 49 0.0 0.0 0.00 0.00 0.00 93 1012.2
20260904091504 23 49 0.0 0.0 0.00 0.00 0.00 93 1012.2
20260904090004 23 49 0.0 0.0 0.00 0.00 0.00 93 1012.3
20260904084504 23 49 0.0 0.0 0.00 0.00 0.00 92 1012.3
20260904083004 23 49 0.0 0.0 0.00 0.00 0.00 92 1012.3
20260904081504 23 49 0.0 0.0 0.00 0.00 0.00 92 1012.2
20260904080004 23 49 0.0 0.0 0.00 0.00 0.00 92 1012.4
20260904074503 23 49 0.0 0.0 0.00 0.00 0.00 92 1012.4
20260904073004 23 49 0.0 0.0 0.00 0.00 0.00 91 1012.6
20260904071503 23 49 0.0 0.0 0.00 0.00 0.00 91 1012.7
20260904064504 23 49 0.0 0.0 0.00 0.00 0.00 91 1012.9
20260904063004 23 49 0.0 0.0 0.00 0.00 0.00 90 1013.0
20260904060004 23 49 0.0 0.0 0.00 0.00 0.00 90 1013.1
20260904053004 23 49 0.0 0.0 0.00 0.00 0.00 89 1013.1
20260904051504 24 49 0.0 0.0 0.00 0.00 0.00 89 1013.1
20260904050004 24 49 0.0 0.0 0.00 0.00 0.00 89 1013.0
20260904044503 24 49 0.0 0.0 0.00 0.00 0.00 89 1013.1
20260904043004 24 49 0.0 0.0 0.00 0.00 0.00 89 1013.0
20260904041504 24 49 0.0 0.0 0.00 0.00 0.00 88 1013.0
20260904034503 25 49 0.0 0.0 0.00 0.00 0.00 88 1012.9
20260904033004 25 49 0.0 0.0 0.00 0.00 0.00 87 1012.8
20260904023004 25 49 0.0 0.0 0.00 0.00 0.00 87 1013.0
20260904021504 25 49 0.0 0.0 0.00 0.00 0.00 87 1012.9
20260904014504 26 49 0.0 0.0 0.00 0.00 0.00 85 1012.9
20260904013004 26 49 0.0 0.0 0.00 0.00 0.00 84 1013.0
20260904011504 26 49 0.0 0.0 0.00 0.00 0.00 84 1013.0